• In Austria
  • List of Countries
  • For 7 days
  • Water Temperature
  • Satellite Maps
  • Weather Map
  • News
  • Weather Widgets
  • user-avatar
    Login

    Hourly Weather Tunceli

    Today, 19 November, Sunday

    Time Temperature Precipitation Wind Pressure Humidity
    00:00 +9°C° 0 mm 2 mps 674 mmHg 46%
    01:00 +9°C° 0 mm 2 mps 674 mmHg 47%
    02:00 +9°C° 0 mm 2 mps 673 mmHg 47%
    03:00 +9°C° 0 mm 3 mps 673 mmHg 47%
    04:00 +9°C° 0 mm 3 mps 673 mmHg 47%
    05:00 +8°C° 0 mm 2 mps 673 mmHg 47%
    06:00 +8°C° 0 mm 2 mps 673 mmHg 48%
    07:00 +9°C° 0 mm 2 mps 673 mmHg 46%
    08:00 +10°C° 0 mm 2 mps 673 mmHg 45%
    09:00 +10°C° 0 mm 2 mps 673 mmHg 44%
    10:00 +10°C° 0.3 mm 2 mps 673 mmHg 47%
    11:00 +12°C° 0.3 mm 2 mps 673 mmHg 50%
    12:00 +11°C° 0.3 mm 3 mps 673 mmHg 53%
    13:00 +12°C° 0.6 mm 2 mps 673 mmHg 57%
    14:00 +10°C° 0.6 mm 2 mps 673 mmHg 62%
    15:00 +10°C° 0.6 mm 2 mps 672 mmHg 67%
    16:00 +9°C° 0.8 mm 2 mps 672 mmHg 71%
    17:00 +9°C° 0.8 mm 2 mps 672 mmHg 76%
    18:00 +8°C° 0.8 mm 2 mps 672 mmHg 80%
    19:00 +8°C° 0.1 mm 2 mps 672 mmHg 82%
    20:00 +8°C° 0.1 mm 2 mps 672 mmHg 84%
    21:00 +7°C° 0.1 mm 2 mps 672 mmHg 85%
    22:00 +7°C° 0.1 mm 2 mps 672 mmHg 85%
    23:00 +7°C° 0.1 mm 2 mps 672 mmHg 85%

    Tomorrow, 20 November, Monday

    Time Temperature Precipitation Wind Pressure Humidity
    00:00 +7°C° 0.1 mm 2 mps 672 mmHg 85%
    01:00 +7°C° 0.1 mm 2 mps 672 mmHg 87%
    02:00 +7°C° 0.1 mm 2 mps 672 mmHg 88%
    03:00 +6°C° 0.1 mm 2 mps 672 mmHg 89%
    04:00 +6°C° 0.1 mm 2 mps 672 mmHg 88%
    05:00 +6°C° 0.1 mm 2 mps 672 mmHg 88%
    06:00 +7°C° 0.1 mm 2 mps 671 mmHg 87%
    07:00 +7°C° 0.1 mm 2 mps 671 mmHg 86%
    08:00 +7°C° 0.1 mm 2 mps 671 mmHg 85%
    09:00 +8°C° 0.1 mm 2 mps 671 mmHg 83%
    10:00 +9°C° 0.1 mm 2 mps 671 mmHg 80%
    11:00 +9°C° 0.1 mm 2 mps 671 mmHg 76%
    12:00 +10°C° 0.1 mm 3 mps 670 mmHg 72%
    13:00 +11°C° 0.1 mm 3 mps 670 mmHg 70%
    14:00 +11°C° 0.1 mm 3 mps 669 mmHg 69%
    15:00 +11°C° 0.1 mm 3 mps 669 mmHg 67%
    16:00 +11°C° 0.2 mm 3 mps 669 mmHg 71%
    17:00 +10°C° 0.2 mm 2 mps 668 mmHg 74%
    18:00 +9°C° 0.2 mm 2 mps 668 mmHg 77%
    19:00 +9°C° 0.5 mm 2 mps 668 mmHg 79%
    20:00 +9°C° 0.5 mm 2 mps 668 mmHg 81%
    21:00 +9°C° 0.5 mm 2 mps 667 mmHg 84%
    22:00 +9°C° 0.8 mm 2 mps 667 mmHg 85%
    23:00 +8°C° 0.8 mm 2 mps 667 mmHg 86%

    Day after tomorrow, 21 November, Tuesday

    Time Temperature Precipitation Wind Pressure Humidity
    00:00 +8°C° 0.8 mm 2 mps 667 mmHg 87%
    01:00 +8°C° 0.9 mm 2 mps 666 mmHg 87%
    02:00 +8°C° 0.9 mm 2 mps 666 mmHg 87%
    03:00 +8°C° 0.9 mm 2 mps 666 mmHg 88%
    04:00 +8°C° 0.8 mm 2 mps 666 mmHg 88%
    05:00 +8°C° 0.8 mm 2 mps 665 mmHg 89%
    06:00 +8°C° 0.8 mm 2 mps 665 mmHg 90%
    07:00 +8°C° 0.7 mm 3 mps 665 mmHg 89%
    08:00 +8°C° 0.7 mm 3 mps 665 mmHg 89%
    09:00 +8°C° 0.7 mm 3 mps 664 mmHg 88%
    10:00 +8°C° 2.4 mm 3 mps 664 mmHg 89%
    11:00 +8°C° 2.4 mm 3 mps 663 mmHg 90%
    12:00 +8°C° 2.4 mm 3 mps 663 mmHg 91%
    13:00 +7°C° 2.3 mm 4 mps 662 mmHg 90%
    14:00 +8°C° 2.3 mm 4 mps 662 mmHg 89%
    15:00 +8°C° 2.3 mm 5 mps 662 mmHg 88%
    16:00 +8°C° 3.2 mm 4 mps 662 mmHg 90%
    17:00 +8°C° 3.2 mm 4 mps 662 mmHg 92%
    18:00 +8°C° 3.2 mm 3 mps 663 mmHg 93%
    19:00 +8°C° 1.7 mm 3 mps 663 mmHg 93%
    20:00 +8°C° 1.7 mm 2 mps 663 mmHg 93%
    21:00 +7°C° 1.7 mm 2 mps 664 mmHg 92%
    22:00 +7°C° 0.4 mm 2 mps 664 mmHg 91%
    23:00 +6°C° 0.4 mm 2 mps 665 mmHg 90%

    22 November, Wednesday

    Time Temperature Precipitation Wind Pressure Humidity
    00:00 +6°C° 0.4 mm 2 mps 665 mmHg 89%
    01:00 +5°C° 0.4 mm 2 mps 665 mmHg 88%
    02:00 +5°C° 0.4 mm 2 mps 665 mmHg 87%
    03:00 +5°C° 0.4 mm 2 mps 666 mmHg 86%
    04:00 +4°C° 0.7 mm 2 mps 666 mmHg 85%
    05:00 +4°C° 0.7 mm 2 mps 666 mmHg 85%
    06:00 +3°C° 0.7 mm 3 mps 666 mmHg 85%
    07:00 +3°C° 0.6 mm 3 mps 667 mmHg 83%
    08:00 +3°C° 0.6 mm 3 mps 667 mmHg 81%
    09:00 +2°C° 0.6 mm 3 mps 668 mmHg 80%
    10:00 +3°C° 0.3 mm 3 mps 668 mmHg 77%
    11:00 +3°C° 0.3 mm 3 mps 668 mmHg 74%
    12:00 +4°C° 0.3 mm 3 mps 668 mmHg 71%
    13:00 +4°C° 0.1 mm 3 mps 668 mmHg 69%
    14:00 +4°C° 0.1 mm 3 mps 669 mmHg 68%
    15:00 +4°C° 0.1 mm 3 mps 669 mmHg 66%
    16:00 +3°C° 0 mm 3 mps 669 mmHg 68%
    17:00 +3°C° 0 mm 2 mps 669 mmHg 71%
    18:00 +2°C° 0 mm 2 mps 670 mmHg 74%
    19:00 +1°C° 0 mm 2 mps 670 mmHg 75%
    20:00 +1°C° 0 mm 2 mps 670 mmHg 75%
    21:00 -1°C° 0 mm 2 mps 671 mmHg 76%
    22:00 -1°C° 0 mm 2 mps 671 mmHg 76%
    23:00 -1°C° 0 mm 2 mps 671 mmHg 76%

    23 November, Thursday

    Time Temperature Precipitation Wind Pressure Humidity
    00:00 0°C° 0 mm 1 mps 671 mmHg 75%
    01:00 +1°C° 0 mm 1 mps 671 mmHg 75%
    02:00 +1°C° 0 mm 1 mps 671 mmHg 74%
    03:00 +1°C° 0 mm 1 mps 671 mmHg 74%
    04:00 +1°C° 0 mm 1 mps 671 mmHg 74%
    05:00 +1°C° 0 mm 1 mps 671 mmHg 75%
    06:00 +1°C° 0 mm 1 mps 671 mmHg 76%
    07:00 +1°C° 0 mm 2 mps 672 mmHg 75%
    08:00 +1°C° 0 mm 2 mps 672 mmHg 74%
    09:00 +2°C° 0 mm 2 mps 673 mmHg 73%
    10:00 +3°C° 0 mm 2 mps 673 mmHg 70%
    11:00 +2°C° 0 mm 3 mps 673 mmHg 66%
    12:00 +3°C° 0 mm 3 mps 673 mmHg 63%
    13:00 +3°C° 0 mm 3 mps 673 mmHg 61%
    14:00 +4°C° 0 mm 3 mps 673 mmHg 60%
    15:00 +4°C° 0 mm 3 mps 673 mmHg 58%
    16:00 +4°C° 0 mm 2 mps 673 mmHg 61%
    17:00 +2°C° 0 mm 2 mps 673 mmHg 64%
    18:00 +1°C° 0 mm 2 mps 673 mmHg 68%
    19:00 +1°C° 0 mm 2 mps 674 mmHg 68%
    20:00 -1°C° 0 mm 2 mps 674 mmHg 69%
    21:00 -1°C° 0 mm 2 mps 674 mmHg 70%
    22:00 -1°C° 0 mm 2 mps 675 mmHg 70%
    23:00 -2°C° 0 mm 2 mps 675 mmHg 71%

    24 November, Friday

    Time Temperature Precipitation Wind Pressure Humidity
    00:00 -2°C° 0 mm 2 mps 675 mmHg 71%
    01:00 -2°C° 0 mm 2 mps 675 mmHg 72%
    02:00 -2°C° 0 mm 2 mps 675 mmHg 72%
    03:00 -3°C° 0 mm 2 mps 675 mmHg 73%
    04:00 -3°C° 0 mm 2 mps 676 mmHg 73%
    05:00 -3°C° 0 mm 2 mps 676 mmHg 73%
    06:00 -3°C° 0 mm 2 mps 676 mmHg 74%
    07:00 -3°C° 0 mm 2 mps 676 mmHg 71%
    08:00 -2°C° 0 mm 2 mps 677 mmHg 68%
    09:00 -1°C° 0 mm 2 mps 677 mmHg 65%
    10:00 +1°C° 0 mm 2 mps 677 mmHg 61%
    11:00 +2°C° 0 mm 2 mps 677 mmHg 57%
    12:00 +4°C° 0 mm 2 mps 677 mmHg 53%
    13:00 +4°C° 0 mm 2 mps 676 mmHg 53%
    14:00 +4°C° 0 mm 2 mps 676 mmHg 52%
    15:00 +4°C° 0 mm 2 mps 676 mmHg 52%
    16:00 +3°C° 0 mm 2 mps 676 mmHg 56%
    17:00 +2°C° 0 mm 2 mps 676 mmHg 60%
    18:00 -1°C° 0 mm 2 mps 676 mmHg 64%
    19:00 -1°C° 0 mm 2 mps 676 mmHg 64%
    20:00 -1°C° 0 mm 2 mps 677 mmHg 64%
    21:00 -2°C° 0 mm 2 mps 677 mmHg 64%
    22:00 -2°C° 0 mm 2 mps 677 mmHg 64%
    23:00 -2°C° 0 mm 2 mps 677 mmHg 64%
    Show more